When you browse on this site, cookies collect data to enhance your experience and personalize the content and advertising you see.
Visit our Privacy Policy to learn more. By continuing to use the site, you agree to this use of cookies and data.
  • In Hungary
  • List of Countries
  • For 7 days
  • Water Temperature
  • Satellite Maps
  • Weather Map
  • News
  • Weather Widgets
  • user-avatar
    Login

    Hourly Weather Kodeniec

    Today, 24 May, Friday

    Time Temperature Precipitation Wind Pressure Humidity
    00:00 +14°C° 0.2 mm 3 mps 744 mmHg 96%
    01:00 +13°C° 0.2 mm 3 mps 744 mmHg 97%
    02:00 +13°C° 0.2 mm 3 mps 744 mmHg 98%
    03:00 +13°C° 0.2 mm 3 mps 745 mmHg 97%
    04:00 +12°C° 0.2 mm 3 mps 745 mmHg 97%
    05:00 +12°C° 0.2 mm 3 mps 745 mmHg 96%
    06:00 +12°C° 0 mm 3 mps 745 mmHg 95%
    07:00 +12°C° 0 mm 3 mps 745 mmHg 94%
    08:00 +13°C° 0 mm 3 mps 745 mmHg 93%
    09:00 +13°C° 0 mm 3 mps 745 mmHg 91%
    10:00 +14°C° 0 mm 3 mps 745 mmHg 90%
    11:00 +14°C° 0 mm 3 mps 745 mmHg 88%
    12:00 +16°C° 0 mm 3 mps 745 mmHg 86%
    13:00 +17°C° 0 mm 4 mps 745 mmHg 83%
    14:00 +17°C° 0 mm 4 mps 745 mmHg 80%
    15:00 +18°C° 0 mm 4 mps 745 mmHg 79%
    16:00 +19°C° 0 mm 3 mps 745 mmHg 77%
    17:00 +19°C° 0 mm 3 mps 744 mmHg 76%
    18:00 +18°C° 0 mm 3 mps 744 mmHg 79%
    19:00 +17°C° 0 mm 2 mps 744 mmHg 83%
    20:00 +16°C° 0 mm 2 mps 744 mmHg 87%
    21:00 +15°C° 0 mm 2 mps 744 mmHg 89%
    22:00 +15°C° 0 mm 2 mps 744 mmHg 91%
    23:00 +14°C° 0 mm 2 mps 744 mmHg 92%

    Tomorrow, 25 May, Saturday

    Time Temperature Precipitation Wind Pressure Humidity
    00:00 +13°C° 0 mm 2 mps 744 mmHg 93%
    01:00 +13°C° 0 mm 2 mps 744 mmHg 94%
    02:00 +13°C° 0 mm 2 mps 744 mmHg 94%
    03:00 +12°C° 0 mm 2 mps 744 mmHg 95%
    04:00 +12°C° 0 mm 2 mps 744 mmHg 95%
    05:00 +12°C° 0 mm 2 mps 744 mmHg 95%
    06:00 +13°C° 0 mm 2 mps 744 mmHg 90%
    07:00 +14°C° 0 mm 3 mps 744 mmHg 85%
    08:00 +17°C° 0 mm 3 mps 744 mmHg 80%
    09:00 +18°C° 0 mm 3 mps 744 mmHg 74%
    10:00 +19°C° 0 mm 3 mps 744 mmHg 69%
    11:00 +20°C° 0 mm 4 mps 744 mmHg 63%
    12:00 +21°C° 0 mm 4 mps 744 mmHg 60%
    13:00 +21°C° 0 mm 4 mps 744 mmHg 58%
    14:00 +21°C° 0 mm 4 mps 743 mmHg 55%
    15:00 +22°C° 0 mm 4 mps 743 mmHg 56%
    16:00 +22°C° 0 mm 4 mps 743 mmHg 58%
    17:00 +22°C° 0 mm 4 mps 743 mmHg 59%
    18:00 +20°C° 0.2 mm 3 mps 743 mmHg 67%
    19:00 +19°C° 0.2 mm 3 mps 743 mmHg 76%
    20:00 +17°C° 0.2 mm 2 mps 743 mmHg 84%
    21:00 +16°C° 0 mm 2 mps 743 mmHg 86%
    22:00 +15°C° 0 mm 2 mps 744 mmHg 88%
    23:00 +14°C° 0 mm 2 mps 744 mmHg 91%

    Day after tomorrow, 26 May, Sunday

    Time Temperature Precipitation Wind Pressure Humidity
    00:00 +13°C° 0 mm 2 mps 744 mmHg 91%
    01:00 +13°C° 0 mm 2 mps 744 mmHg 91%
    02:00 +12°C° 0 mm 2 mps 744 mmHg 92%
    03:00 +12°C° 0 mm 2 mps 744 mmHg 92%
    04:00 +10°C° 0 mm 2 mps 744 mmHg 93%
    05:00 +10°C° 0 mm 2 mps 744 mmHg 94%
    06:00 +13°C° 0 mm 2 mps 744 mmHg 89%
    07:00 +13°C° 0 mm 3 mps 745 mmHg 83%
    08:00 +16°C° 0 mm 3 mps 745 mmHg 78%
    09:00 +17°C° 0 mm 3 mps 745 mmHg 73%
    10:00 +19°C° 0 mm 4 mps 745 mmHg 67%
    11:00 +20°C° 0 mm 4 mps 745 mmHg 62%
    12:00 +20°C° 0.3 mm 4 mps 744 mmHg 64%
    13:00 +21°C° 0.3 mm 4 mps 744 mmHg 66%
    14:00 +21°C° 0.3 mm 5 mps 744 mmHg 68%
    15:00 +20°C° 0.7 mm 5 mps 744 mmHg 71%
    16:00 +20°C° 0.7 mm 5 mps 743 mmHg 74%
    17:00 +20°C° 0.7 mm 5 mps 743 mmHg 77%
    18:00 +19°C° 0.1 mm 4 mps 743 mmHg 79%
    19:00 +18°C° 0.1 mm 4 mps 743 mmHg 81%
    20:00 +17°C° 0.1 mm 3 mps 744 mmHg 83%
    21:00 +15°C° 0 mm 2 mps 744 mmHg 85%
    22:00 +14°C° 0 mm 2 mps 744 mmHg 87%
    23:00 +13°C° 0 mm 1 mps 744 mmHg 89%

    27 May, Monday

    Time Temperature Precipitation Wind Pressure Humidity
    00:00 +13°C° 0 mm 1 mps 745 mmHg 88%
    01:00 +12°C° 0 mm 1 mps 745 mmHg 88%
    02:00 +12°C° 0 mm 1 mps 745 mmHg 88%
    03:00 +12°C° 0 mm 1 mps 745 mmHg 89%
    04:00 +12°C° 0 mm 2 mps 744 mmHg 89%
    05:00 +12°C° 0 mm 2 mps 744 mmHg 89%
    06:00 +13°C° 0 mm 3 mps 745 mmHg 85%
    07:00 +16°C° 0 mm 3 mps 745 mmHg 81%
    08:00 +18°C° 0 mm 4 mps 745 mmHg 77%
    09:00 +19°C° 0.1 mm 4 mps 745 mmHg 74%
    10:00 +21°C° 0.1 mm 4 mps 745 mmHg 70%
    11:00 +22°C° 0.1 mm 4 mps 744 mmHg 67%
    12:00 +23°C° 0.1 mm 4 mps 744 mmHg 64%
    13:00 +25°C° 0.1 mm 5 mps 744 mmHg 62%
    14:00 +25°C° 0.1 mm 5 mps 743 mmHg 59%
    15:00 +25°C° 0.3 mm 4 mps 743 mmHg 62%
    16:00 +25°C° 0.3 mm 4 mps 743 mmHg 66%
    17:00 +23°C° 0.3 mm 4 mps 743 mmHg 69%
    18:00 +22°C° 0.4 mm 4 mps 743 mmHg 77%
    19:00 +20°C° 0.4 mm 3 mps 743 mmHg 84%
    20:00 +19°C° 0.4 mm 3 mps 743 mmHg 91%
    21:00 +18°C° 0.1 mm 2 mps 743 mmHg 91%
    22:00 +18°C° 0.1 mm 2 mps 743 mmHg 91%
    23:00 +19°C° 0.1 mm 1 mps 743 mmHg 91%

    28 May, Tuesday

    Time Temperature Precipitation Wind Pressure Humidity
    00:00 +18°C° 0 mm 1 mps 743 mmHg 92%
    01:00 +18°C° 0 mm 1 mps 742 mmHg 92%
    02:00 +18°C° 0 mm 1 mps 742 mmHg 93%
    03:00 +18°C° 0.7 mm 1 mps 742 mmHg 94%
    04:00 +17°C° 0.7 mm 2 mps 742 mmHg 95%
    05:00 +17°C° 0.7 mm 2 mps 742 mmHg 96%
    06:00 +17°C° 1.6 mm 2 mps 742 mmHg 96%
    07:00 +17°C° 1.6 mm 2 mps 742 mmHg 96%
    08:00 +18°C° 1.6 mm 2 mps 741 mmHg 96%
    09:00 +19°C° 0.3 mm 3 mps 741 mmHg 92%
    10:00 +20°C° 0.3 mm 3 mps 741 mmHg 88%
    11:00 +22°C° 0.3 mm 3 mps 741 mmHg 83%
    12:00 +22°C° 0.7 mm 3 mps 741 mmHg 81%
    13:00 +24°C° 0.7 mm 2 mps 740 mmHg 78%
    14:00 +25°C° 0.7 mm 2 mps 740 mmHg 76%
    15:00 +24°C° 1.1 mm 2 mps 740 mmHg 77%
    16:00 +24°C° 1.1 mm 2 mps 740 mmHg 78%
    17:00 +24°C° 1.1 mm 2 mps 740 mmHg 80%
    18:00 +23°C° 2.4 mm 2 mps 740 mmHg 83%
    19:00 +21°C° 2.4 mm 2 mps 739 mmHg 86%
    20:00 +20°C° 2.4 mm 2 mps 739 mmHg 89%
    21:00 +19°C° 0.3 mm 2 mps 739 mmHg 90%
    22:00 +19°C° 0.3 mm 2 mps 739 mmHg 91%
    23:00 +18°C° 0.3 mm 2 mps 739 mmHg 92%

    29 May, Wednesday

    Time Temperature Precipitation Wind Pressure Humidity
    00:00 +18°C° 0 mm 2 mps 739 mmHg 92%
    01:00 +17°C° 0 mm 2 mps 739 mmHg 93%
    02:00 +17°C° 0 mm 2 mps 739 mmHg 93%
    03:00 +16°C° 0 mm 2 mps 739 mmHg 94%
    04:00 +16°C° 0 mm 2 mps 739 mmHg 95%
    05:00 +16°C° 0 mm 2 mps 739 mmHg 96%
    06:00 +17°C° 0 mm 3 mps 740 mmHg 93%
    07:00 +18°C° 0 mm 3 mps 740 mmHg 91%
    08:00 +19°C° 0 mm 3 mps 740 mmHg 88%
    09:00 +20°C° 1.4 mm 3 mps 740 mmHg 84%
    10:00 +21°C° 1.4 mm 3 mps 741 mmHg 80%
    11:00 +22°C° 1.4 mm 3 mps 741 mmHg 76%
    12:00 +23°C° 0.8 mm 4 mps 741 mmHg 73%
    13:00 +23°C° 0.8 mm 4 mps 741 mmHg 69%
    14:00 +25°C° 0.8 mm 4 mps 742 mmHg 66%
    15:00 +25°C° 0.5 mm 3 mps 742 mmHg 68%
    16:00 +25°C° 0.5 mm 3 mps 742 mmHg 70%
    17:00 +25°C° 0.5 mm 2 mps 742 mmHg 72%
    18:00 +23°C° 0.8 mm 2 mps 742 mmHg 77%
    19:00 +21°C° 0.8 mm 2 mps 743 mmHg 82%
    20:00 +20°C° 0.8 mm 2 mps 743 mmHg 88%
    21:00 +19°C° 1 mm 2 mps 743 mmHg 90%
    22:00 +18°C° 1 mm 2 mps 744 mmHg 93%
    23:00 +17°C° 1 mm 2 mps 744 mmHg 95%
    Show more